Time,TemperatureF,DewpointF,PressureIn,WindDirection,WindDirectionDegrees,WindSpeedMPH,WindSpeedGustMPH,Humidity,HourlyPrecipIn,Conditions,Clouds,dailyrainin,SolarRadiationWatts/m^2,SoftwareType,DateUTC
2013-08-28 12:24:00,76.0,76.0,-100.00,ENE,73,7.0,12.0,100,0.00,,,0.03,353.000000,,2013-08-28 17:24:00,
2013-08-28 12:35:00,76.0,76.0,-100.00,ENE,73,7.0,12.0,100,0.00,,,0.03,353.000000,,2013-08-28 17:35:00,
2013-08-28 12:43:00,76.0,76.0,-100.00,ENE,73,7.0,12.0,100,0.00,,,0.03,353.000000,,2013-08-28 17:43:00,
2013-08-28 12:52:00,76.0,76.0,-100.00,ENE,73,7.0,12.0,100,0.00,,,0.03,353.000000,,2013-08-28 17:52:00,
2013-08-28 13:22:00,79.0,75.0,-100.00,ESE,106,10.0,13.0,88,0.00,,,0.03,507.000000,,2013-08-28 18:22:00,
2013-08-28 13:32:00,79.0,75.0,-100.00,ESE,106,10.0,13.0,88,0.00,,,0.03,507.000000,,2013-08-28 18:32:00,
2013-08-28 13:42:00,79.0,75.0,-100.00,ESE,106,10.0,13.0,88,0.00,,,0.03,507.000000,,2013-08-28 18:42:00,
2013-08-28 13:52:00,79.0,75.0,-100.00,ESE,106,10.0,13.0,88,0.00,,,0.03,507.000000,,2013-08-28 18:52:00,
2013-08-28 14:22:00,80.0,78.0,-100.00,ESE,102,11.0,15.0,95,0.00,,,0.03,651.000000,,2013-08-28 19:22:00,
2013-08-28 14:32:00,80.0,78.0,-100.00,ESE,102,11.0,15.0,95,0.00,,,0.03,651.000000,,2013-08-28 19:32:00,
2013-08-28 14:42:00,80.0,78.0,-100.00,ESE,102,11.0,15.0,95,0.00,,,0.03,651.000000,,2013-08-28 19:42:00,
2013-08-28 14:52:00,80.0,78.0,-100.00,ESE,102,11.0,15.0,95,0.00,,,0.03,651.000000,,2013-08-28 19:52:00,
2013-08-28 15:23:00,82.0,79.0,-100.00,SE,140,13.0,17.0,90,0.00,,,0.03,685.000000,,2013-08-28 20:23:00,
2013-08-28 15:32:00,82.0,79.0,-100.00,SE,140,13.0,17.0,90,0.00,,,0.03,685.000000,,2013-08-28 20:32:00,
2013-08-28 15:43:00,82.0,79.0,-100.00,SE,140,13.0,17.0,90,0.00,,,0.03,685.000000,,2013-08-28 20:43:00,
2013-08-28 15:52:00,82.0,79.0,-100.00,SE,140,13.0,17.0,90,0.00,,,0.03,685.000000,,2013-08-28 20:52:00,
2013-08-28 16:22:00,83.0,78.0,-100.00,SSE,152,14.0,19.0,84,0.00,,,0.03,714.000000,,2013-08-28 21:22:00,
2013-08-28 16:35:00,83.0,78.0,-100.00,SSE,152,14.0,19.0,84,0.00,,,0.03,714.000000,,2013-08-28 21:35:00,
2013-08-28 16:44:00,83.0,78.0,-100.00,SSE,152,14.0,19.0,84,0.00,,,0.03,714.000000,,2013-08-28 21:44:00,
2013-08-28 16:57:00,83.0,78.0,-100.00,SSE,152,14.0,19.0,84,0.00,,,0.03,714.000000,,2013-08-28 21:57:00,
2013-08-28 17:25:00,83.0,79.0,-100.00,SSE,167,9.0,17.0,87,0.00,,,0.03,489.000000,,2013-08-28 22:25:00,
2013-08-28 17:34:00,83.0,79.0,-100.00,SSE,167,9.0,17.0,87,0.00,,,0.03,489.000000,,2013-08-28 22:34:00,
2013-08-28 17:43:00,83.0,79.0,-100.00,SSE,167,9.0,17.0,87,0.00,,,0.03,489.000000,,2013-08-28 22:43:00,
2013-08-28 17:54:00,83.0,79.0,-100.00,SSE,167,9.0,17.0,87,0.00,,,0.03,489.000000,,2013-08-28 22:54:00,
2013-08-28 18:22:00,82.0,78.0,-100.00,SSE,155,7.0,15.0,89,0.00,,,0.03,267.000000,,2013-08-28 23:22:00,
2013-08-28 18:33:00,82.0,78.0,-100.00,SSE,155,7.0,15.0,89,0.00,,,0.03,267.000000,,2013-08-28 23:33:00,
2013-08-28 18:42:00,82.0,78.0,-100.00,SSE,155,7.0,15.0,89,0.00,,,0.03,267.000000,,2013-08-28 23:42:00,
2013-08-28 18:53:00,82.0,78.0,-100.00,SSE,155,7.0,15.0,89,0.00,,,0.03,267.000000,,2013-08-28 23:53:00,
2013-08-28 20:22:00,79.0,79.0,-100.00,SE,126,7.0,11.0,100,0.00,,,0.03,37.000000,,2013-08-29 01:22:00,
2013-08-28 20:32:00,79.0,79.0,-100.00,SE,126,7.0,11.0,100,0.00,,,0.03,37.000000,,2013-08-29 01:32:00,
2013-08-28 20:42:00,79.0,79.0,-100.00,SE,126,7.0,11.0,100,0.00,,,0.03,37.000000,,2013-08-29 01:42:00,
2013-08-28 20:52:00,79.0,79.0,-100.00,SE,126,7.0,11.0,100,0.00,,,0.03,37.000000,,2013-08-29 01:52:00,
2013-08-28 21:22:00,76.0,76.0,-100.00,ESE,122,5.0,9.0,100,0.00,,,0.03,3.000000,,2013-08-29 02:22:00,
2013-08-28 21:32:00,76.0,76.0,-100.00,ESE,122,5.0,9.0,100,0.00,,,0.03,3.000000,,2013-08-29 02:32:00,
2013-08-28 21:43:00,76.0,76.0,-100.00,ESE,122,5.0,9.0,100,0.00,,,0.03,3.000000,,2013-08-29 02:43:00,
2013-08-28 21:52:00,76.0,76.0,-100.00,ESE,122,5.0,9.0,100,0.00,,,0.03,3.000000,,2013-08-29 02:52:00,
2013-08-28 22:23:00,76.0,76.0,-100.00,SE,131,7.0,9.0,100,0.00,,,0.03,0.000000,,2013-08-29 03:23:00,
2013-08-28 22:37:00,76.0,76.0,-100.00,SE,131,7.0,9.0,100,0.00,,,0.03,0.000000,,2013-08-29 03:37:00,
2013-08-28 22:45:00,76.0,76.0,-100.00,SE,131,7.0,9.0,100,0.00,,,0.03,0.000000,,2013-08-29 03:45:00,
2013-08-28 22:56:00,76.0,76.0,-100.00,SE,131,7.0,9.0,100,0.00,,,0.03,0.000000,,2013-08-29 03:56:00,
2013-08-28 23:28:00,76.0,76.0,-100.00,SE,137,8.0,11.0,100,0.00,,,0.03,0.000000,,2013-08-29 04:28:00,
2013-08-28 23:37:00,76.0,76.0,-100.00,SE,137,8.0,11.0,100,0.00,,,0.03,0.000000,,2013-08-29 04:37:00,
2013-08-28 23:45:00,76.0,76.0,-100.00,SE,137,8.0,11.0,100,0.00,,,0.03,0.000000,,2013-08-29 04:45:00,
2013-08-28 23:54:00,76.0,76.0,-100.00,SE,137,8.0,11.0,100,0.00,,,0.03,0.000000,,2013-08-29 04:54:00,